H1 CPF 2 NER 2025 11 30 9 334 01 glonass131 H2 1301901 9131 39155 2025 11 30 0 0 0 2025 12 3 23 45 0 900 1 1 0 0 0 1 H9 10 0 61009 0.00000 0 17060238.073 10735660.081 15725645.724 10 0 61009 900.00000 0 15041227.770 10270486.628 17940451.286 10 0 61009 1800.00000 0 12743724.415 9934788.261 19809128.644 10 0 61009 2700.00000 0 10221719.951 9766640.810 21295577.595 10 0 61009 3600.00000 0 7536901.701 9793977.165 22371011.426 10 0 61009 4500.00000 0 4756330.707 10033307.775 23014508.106 10 0 61009 5400.00000 0 1949903.823 10488929.266 23213417.951 10 0 61009 6300.00000 0 -812298.569 11152655.077 22963619.957 10 0 61009 7200.00000 0 -3462672.381 12004081.100 22269621.185 10 0 61009 8100.00000 0 -5938649.525 13011377.659 21144495.887 10 0 61009 9000.00000 0 -8185053.276 14132577.765 19609663.477 10 0 61009 9900.00000 0 -10156152.410 15317310.941 17694507.111 10 0 61009 10800.00000 0 -11817328.822 16508913.098 15435837.416 10 0 61009 11700.00000 0 -13146288.323 17646826.626 12877208.848 10 0 61009 12600.00000 0 -14133762.597 18669191.648 10068099.327 10 0 61009 13500.00000 0 -14783671.007 19515520.310 7062966.820 10 0 61009 14400.00000 0 -15112733.474 20129341.071 3920199.712 10 0 61009 15300.00000 0 -15149548.865 20460700.045 700980.649 10 0 61009 16200.00000 0 -14933176.439 20468411.317 -2531913.831 10 0 61009 17100.00000 0 -14511279.714 20121958.060 -5715353.510 10 0 61009 18000.00000 0 -13937911.524 19402960.555 -8787108.551 10 0 61009 18900.00000 0 -13271035.307 18306145.592 -11687090.623 10 0 61009 19800.00000 0 -12569889.593 16839773.172 -14358554.231 10 0 61009 20700.00000 0 -11892309.992 15025500.047 -16749232.033 10 0 61009 21600.00000 0 -11292125.013 12897684.283 -18812379.444 10 0 61009 22500.00000 0 -10816738.864 10502159.509 -20507705.980 10 0 61009 23400.00000 0 -10505006.039 7894530.730 -21802173.556 10 0 61009 24300.00000 0 -10385489.438 5138064.273 -22670645.245 10 0 61009 25200.00000 0 -10475176.692 2301261.874 -23096371.609 10 0 61009 26100.00000 0 -10778708.990 -544777.782 -23071305.581 10 0 61009 27000.00000 0 -11288154.202 -3329098.193 -22596240.812 10 0 61009 27900.00000 0 -11983332.298 -5983609.303 -21680772.327 10 0 61009 28800.00000 0 -12832677.209 -8445682.715 -20343082.132 10 0 61009 29700.00000 0 -13794596.372 -10660510.021 -18609556.023 10 0 61009 30600.00000 0 -14819268.194 -12583127.214 -16514241.175 10 0 61009 31500.00000 0 -15850799.452 -14180022.941 -14098157.131 10 0 61009 32400.00000 0 -16829649.958 -15430266.474 -11408475.441 10 0 61009 33300.00000 0 -17695221.220 -16326111.871 -8497585.469 10 0 61009 34200.00000 0 -18388499.629 -16873056.921 -5422065.741 10 0 61009 35100.00000 0 -18854643.223 -17089358.284 -2241581.604 10 0 61009 36000.00000 0 -19045404.144 -17005026.671 982269.126 10 0 61009 36900.00000 0 -18921286.412 -16660347.163 4187140.305 10 0 61009 37800.00000 0 -18453350.160 -16103988.871 7311129.118 10 0 61009 38700.00000 0 -17624588.496 -15390784.481 10293953.410 10 0 61009 39600.00000 0 -16430820.953 -14579273.104 13078093.412 10 0 61009 40500.00000 0 -14881067.378 -13729108.855 15609877.819 10 0 61009 41400.00000 0 -12997387.181 -12898442.461 17840495.343 10 0 61009 42300.00000 0 -10814190.459 -12141383.745 19726914.453 10 0 61009 43200.00000 0 -8377048.526 -11505649.210 21232695.690 10 0 61009 44100.00000 0 -5741051.376 -11030491.210 22328682.750 10 0 61009 45000.00000 0 -2968777.586 -10744993.823 22993560.403 10 0 61009 45900.00000 0 -127957.695 -10666805.797 23214269.312 10 0 61009 46800.00000 0 2711075.592 -10801363.514 22986269.877 10 0 61009 47700.00000 0 5478048.043 -11141637.355 22313649.367 10 0 61009 48600.00000 0 8105408.169 -11668413.799 21209068.906 10 0 61009 49500.00000 0 10530887.017 -12351103.905 19693549.289 10 0 61009 50400.00000 0 12699848.726 -13149047.174 17796097.272 10 0 61009 51300.00000 0 14567334.696 -14013259.136 15553176.691 10 0 61009 52200.00000 0 16099715.869 -14888552.004 13008031.795 10 0 61009 53100.00000 0 17275882.909 -15715941.385 10209873.226 10 0 61009 54000.00000 0 18087922.678 -16435238.987 7212940.237 10 0 61009 54900.00000 0 18541250.526 -16987722.182 4075455.781 10 0 61009 55800.00000 0 18654190.677 -17318766.841 858494.078 10 0 61009 56700.00000 0 18457020.652 -17380330.163 -2375217.180 10 0 61009 57600.00000 0 17990518.875 -17133175.678 -5562535.684 10 0 61009 58500.00000 0 17304076.530 -16548742.887 -8641158.514 10 0 61009 59400.00000 0 16453454.127 -15610578.822 -11550864.515 10 0 61009 60300.00000 0 15498279.172 -14315267.542 -14234718.203 10 0 61009 61200.00000 0 14499393.085 -12672815.304 -16640208.881 10 0 61009 62100.00000 0 13516162.273 -10706472.987 -18720300.228 10 0 61009 63000.00000 0 12603869.931 -8452001.926 -20434367.640 10 0 61009 63900.00000 0 11811301.406 -5956413.724 -21749003.426 10 0 61009 64800.00000 0 11178627.261 -3276237.494 -22638673.164 10 0 61009 65700.00000 0 10735674.661 -475388.343 -23086210.191 10 0 61009 66600.00000 0 10500660.444 2377272.041 -23083138.991 10 0 61009 67500.00000 0 10479438.711 5210579.087 -22629822.209 10 0 61009 68400.00000 0 10665293.171 7953801.498 -21735429.949 10 0 61009 69300.00000 0 11039280.825 10539354.744 -20417733.801 10 0 61009 70200.00000 0 11571109.820 12905378.568 -18702731.703 10 0 61009 71100.00000 0 12220511.644 14998071.689 -16624113.005 10 0 61009 72000.00000 0 12939047.042 16773687.877 -14222576.259 10 0 61009 72900.00000 0 13672267.158 18200112.533 -11545014.841 10 0 61009 73800.00000 0 14362136.940 19257957.040 -8643587.829 10 0 61009 74700.00000 0 14949617.588 19941128.669 -5574695.444 10 0 61009 75600.00000 0 15377298.823 20256855.956 -2397879.762 10 0 61009 76500.00000 0 15591970.547 20225172.063 825327.653 10 0 61009 77400.00000 0 15547026.622 19877880.941 4032588.968 10 0 61009 78300.00000 0 15204601.190 19257052.130 7161951.911 10 0 61009 79200.00000 0 14537349.464 18413108.929 10153028.291 10 0 61009 80100.00000 0 13529799.957 17402590.763 12948137.954 10 0 61009 81000.00000 0 12179222.850 16285683.295 15493398.003 10 0 61009 81900.00000 0 10495978.973 15123618.624 17739738.400 10 0 61009 82800.00000 0 8503334.932 13976052.677 19643826.536 10 0 61009 83700.00000 0 6236751.265 12898527.390 21168885.092 10 0 61009 84600.00000 0 3742671.605 11940121.532 22285389.290 10 0 61009 85500.00000 0 1076860.705 11141386.369 22971631.510 10 0 61010 0.00000 0 -1697642.559 10532650.903 23214143.236 10 0 61010 900.00000 0 -4512877.304 10132766.400 23007966.422 10 0 61010 1800.00000 0 -7298520.245 9948343.499 22356768.193 10 0 61010 2700.00000 0 -9984554.940 9973513.632 21272795.791 10 0 61010 3600.00000 0 -12503939.156 10190227.353 19776670.184 10 0 61010 4500.00000 0 -14795163.070 10569079.060 17897020.069 10 0 61010 5400.00000 0 -16804592.829 11070626.280 15669960.442 10 0 61010 6300.00000 0 -18488501.920 11647150.778 13138422.957 10 0 61010 7200.00000 0 -19814704.709 12244789.705 10351348.362 10 0 61010 8100.00000 0 -20763722.155 12805948.658 7362754.439 10 0 61010 9000.00000 0 -21329428.683 13271895.502 4230695.893 10 0 61010 9900.00000 0 -21519150.650 13585425.005 1016135.713 10 0 61010 10800.00000 0 -21353210.094 13693480.119 -2218250.013 10 0 61010 11700.00000 0 -20863931.245 13549616.530 -5409309.582 10 0 61010 12600.00000 0 -20094150.815 13116202.948 -8494669.595 10 0 61010 13500.00000 0 -19095294.919 12366260.423 -11413978.579 10 0 61010 14400.00000 0 -17925104.802 11284859.177 -14110113.409 10 0 61010 15300.00000 0 -16645109.254 9870010.590 -16530322.198 10 0 61010 16200.00000 0 -15317952.861 8133013.944 -18627278.787 10 0 61010 17100.00000 0 -14004695.630 6098241.388 -20360026.042 10 0 61010 18000.00000 0 -12762200.631 3802369.239 -21694787.898 10 0 61010 18900.00000 0 -11640722.134 1293087.896 -22605633.286 10 0 61010 19800.00000 0 -10681797.491 -1372654.801 -23074978.770 10 0 61010 20700.00000 0 -9916532.321 -4130801.819 -23093920.413 10 0 61010 21600.00000 0 -9364350.926 -6912635.331 -22662389.461 10 0 61010 22500.00000 0 -9032263.258 -9647421.420 -21789130.286 10 0 61010 23400.00000 0 -8914677.220 -12265139.385 -20491502.856 10 0 61010 24300.00000 0 -8993761.387 -14699181.089 -18795115.656 10 0 61010 25200.00000 0 -9240339.771 -16888907.853 -16733298.304 10 0 61010 26100.00000 0 -9615277.701 -18781959.085 -14346426.199 10 0 61010 27000.00000 0 -10071297.430 -20336218.098 -11681112.202 10 0 61010 27900.00000 0 -10555144.455 -21521355.528 -8789282.678 10 0 61010 28800.00000 0 -11010011.347 -22319888.949 -5727157.091 10 0 61010 29700.00000 0 -11378115.876 -22727717.806 -2554151.830 10 0 61010 30600.00000 0 -11603324.505 -22754114.728 668270.152 10 0 61010 31500.00000 0 -11633711.235 -22421176.849 3877781.636 10 0 61010 32400.00000 0 -11423945.157 -21762762.775 7012383.128 10 0 61010 33300.00000 0 -10937407.792 -20822961.747 10011582.599 10 0 61010 34200.00000 0 -10147952.907 -19654160.162 12817541.630 10 0 61010 35100.00000 0 -9041236.447 -18314786.569 15376167.774 10 0 61010 36000.00000 0 -7615561.970 -16866828.715 17638134.156 10 0 61010 36900.00000 0 -5882206.646 -15373224.953 19559808.817 10 0 61010 37800.00000 0 -3865213.837 -13895236.922 21104078.085 10 0 61010 38700.00000 0 -1600659.592 -12489910.813 22241049.941 10 0 61010 39600.00000 0 864578.537 -11207730.858 22948625.307 10 0 61010 40500.00000 0 3474502.133 -10090560.863 23212927.116 10 0 61010 41400.00000 0 6166055.654 -9169958.203 23028579.092 10 0 61010 42300.00000 0 8871491.354 -8465929.937 22398828.301 10 0 61010 43200.00000 0 11520940.847 -7986183.126 21335507.802 10 0 61010 44100.00000 0 14045089.866 -7725901.710 19858838.158 10 0 61010 45000.00000 0 16377847.561 -7668060.989 17997069.131 10 0 61010 45900.00000 0 18458900.980 -7784268.815 15785965.710 10 0 61010 46800.00000 0 20236048.859 -8036100.583 13268145.467 10 0 61010 47700.00000 0 21667216.835 -8376874.230 10492277.433 10 0 61010 48600.00000 0 22722068.393 -8753792.288 7512155.734 10 0 61010 49500.00000 0 23383141.942 -9110361.712 4385664.320 10 0 61010 50400.00000 0 23646463.727 -9388989.299 1173652.131 10 0 61010 51300.00000 0 23521608.270 -9533641.988 -2061259.382 10 0 61010 52200.00000 0 23031201.556 -9492457.401 -5255912.269 10 0 61010 53100.00000 0 22209886.304 -9220191.239 -8347865.807 10 0 61010 54000.00000 0 21102792.260 -8680394.436 -11276641.255 10 0 61010 54900.00000 0 19763576.273 -7847224.225 -13984930.708 10 0 61010 55800.00000 0 18252116.070 -6706808.923 -16419743.699 10 0 61010 56700.00000 0 16631956.970 -5258105.659 -18533466.553 10 0 61010 57600.00000 0 14967621.637 -3513212.409 -20284811.625 10 0 61010 58500.00000 0 13321898.900 -1497119.702 -21639636.149 10 0 61010 59400.00000 0 11753228.222 753088.162 -22571613.736 10 0 61010 60300.00000 0 10313291.779 3189548.540 -23062745.099 10 0 61010 61200.00000 0 9044916.522 5755396.387 -23103698.388 10 0 61010 62100.00000 0 7980374.521 8386924.861 -22693973.523 10 0 61010 63000.00000 0 7140152.089 11016038.647 -21841888.758 10 0 61010 63900.00000 0 6532237.546 13572895.956 -20564391.603 10 0 61010 64800.00000 0 6151954.828 15988627.779 -18886699.821 10 0 61010 65700.00000 0 5982346.684 18198020.414 -16841781.604 10 0 61010 66600.00000 0 5995087.798 20142049.522 -14469687.107 10 0 61010 67500.00000 0 6151885.927 21770161.018 -11816746.236 10 0 61010 68400.00000 0 6406308.897 23042205.400 -8934649.882 10 0 61010 69300.00000 0 6705957.915 23929947.189 -5879433.734 10 0 61010 70200.00000 0 6994893.809 24418089.385 -2710385.291 10 0 61010 71100.00000 0 7216212.982 24504773.275 511104.396 10 0 61010 72000.00000 0 7314664.398 24201535.799 3722722.003 10 0 61010 72900.00000 0 7239198.007 23532729.088 6862423.991 10 0 61010 73800.00000 0 6945338.517 22534428.617 9869617.460 10 0 61010 74700.00000 0 6397286.238 21252877.088 12686308.445 10 0 61010 75600.00000 0 5569658.301 19742529.614 15258197.357 10 0 61010 76500.00000 0 4448798.551 18063781.496 17535702.561 10 0 61010 77400.00000 0 3033602.083 16280472.213 19474894.513 10 0 61010 78300.00000 0 1335819.991 14457267.845 21038324.609 10 0 61010 79200.00000 0 -620169.161 12657028.677 22195734.680 10 0 61010 80100.00000 0 -2798113.362 10938269.122 22924634.931 10 0 61010 81000.00000 0 -5151137.806 9352813.350 23210740.101 10 0 61010 81900.00000 0 -7623443.461 7943742.248 23048255.679 10 0 61010 82800.00000 0 -10152386.581 6743715.894 22440008.127 10 0 61010 83700.00000 0 -12670856.558 5773740.908 21397415.346 10 0 61010 84600.00000 0 -15109856.854 5042434.400 19940296.016 10 0 61010 85500.00000 0 -17401184.622 4545816.376 18096519.015 10 0 61011 0.00000 0 -19480099.456 4267641.050 15901497.130 10 0 61011 900.00000 0 -21287872.191 4180255.155 13397530.683 10 0 61011 1800.00000 0 -22774104.570 4245949.745 10633014.118 10 0 61011 2700.00000 0 -23898725.415 4418750.024 7661514.691 10 0 61011 3600.00000 0 -24633574.834 4646569.521 4540742.319 10 0 61011 4500.00000 0 -24963508.581 4873637.955 1331428.657 10 0 61011 5400.00000 0 -24886973.095 5043099.668 -1903862.613 10 0 61011 6300.00000 0 -24416024.327 5099671.169 -5101970.269 10 0 61011 7200.00000 0 -23575787.318 4992242.743 -8200389.066 10 0 61011 8100.00000 0 -22403377.878 4676310.793 -11138515.587 10 0 61011 9000.00000 0 -20946331.289 4116134.302 -13858859.515 10 0 61011 9900.00000 0 -19260604.812 3286520.494 -16308193.887 10 0 61011 10800.00000 0 -17408239.551 2174160.811 -18438619.264 10 0 61011 11700.00000 0 -15454782.193 778457.993 -20208518.835 10 0 61011 12600.00000 0 -13466577.638 -888192.622 -21583384.029 10 0 61011 13500.00000 0 -11508048.766 -2800680.476 -22536493.538 10 0 61011 14400.00000 0 -9639079.771 -4922004.378 -23049432.121 10 0 61011 15300.00000 0 -7912614.363 -7204609.015 -23112439.430 10 0 61011 16200.00000 0 -6372570.184 -9592176.100 -22724582.997 10 0 61011 17100.00000 0 -5052156.423 -12021793.584 -21893753.487 10 0 61011 18000.00000 0 -3972663.717 -14426410.480 -20636484.107 10 0 61011 18900.00000 0 -3142774.620 -16737473.253 -18977599.749 10 0 61011 19800.00000 0 -2558420.395 -18887632.624 -16949704.783 10 0 61011 20700.00000 0 -2203186.501 -20813407.345 -14592521.565 10 0 61011 21600.00000 0 -2049245.904 -22457694.062 -11952094.395 10 0 61011 22500.00000 0 -2058777.331 -23772019.592 -9079876.027 10 0 61011 23400.00000 0 -2185805.569 -24718443.333 -6031715.775 10 0 61011 24300.00000 0 -2378383.823 -25271032.725 -2866769.751 10 0 61011 25200.00000 0 -2581024.509 -25416852.857 353645.252 10 0 61011 26100.00000 0 -2737275.278 -25156431.717 3567232.019 10 0 61011 27000.00000 0 -2792331.838 -24503684.362 6711905.029 10 0 61011 27900.00000 0 -2695578.337 -23485301.454 9726972.451 10 0 61011 28800.00000 0 -2402949.742 -22139629.363 12554286.569 10 0 61011 29700.00000 0 -1879018.461 -20515089.445 15139342.320 10 0 61011 30600.00000 0 -1098719.142 -18668202.392 17432304.813 10 0 61011 31500.00000 0 -48640.490 -16661299.100 19388948.222 10 0 61011 32400.00000 0 1272169.384 -14560011.722 20971490.091 10 0 61011 33300.00000 0 2851918.003 -12430647.025 22149306.922 10 0 61011 34200.00000 0 4666316.968 -10337548.721 22899518.740 10 0 61011 35100.00000 0 6679355.522 -8340555.755 23207432.338 10 0 61011 36000.00000 0 8844569.872 -6492659.810 23066834.927 10 0 61011 36900.00000 0 11106758.890 -4837957.542 22480132.049 10 0 61011 37800.00000 0 13404078.534 -3409981.559 21458325.866 10 0 61011 38700.00000 0 15670431.586 -2230479.294 20020832.343 10 0 61011 39600.00000 0 17838056.472 -1308691.191 18195138.400 10 0 61011 40500.00000 0 19840209.886 -641159.596 16016302.888 10 0 61011 41400.00000 0 21613832.927 -212078.059 13526308.106 10 0 61011 42300.00000 0 23102089.821 5831.505 10773271.716 10 0 61011 43200.00000 0 24256672.349 49948.793 7810531.998 10 0 61011 44100.00000 0 25039771.711 -34051.699 4695622.451 10 0 61011 45000.00000 0 25425632.558 -194368.896 1489154.826 10 0 61011 45900.00000 0 25401620.904 -375513.138 -1746367.771 10 0 61011 46800.00000 0 24968757.913 -520909.797 -4947783.757 10 0 61011 47700.00000 0 24141694.317 -575556.320 -8052526.263 10 0 61011 48600.00000 0 22948124.387 -488617.331 -10999869.996 10 0 61011 49500.00000 0 21427662.870 -215844.535 -13732144.820 10 0 61011 50400.00000 0 19630231.958 278284.639 -16195889.611 10 0 61011 51300.00000 0 17614026.886 1018803.627 -18342921.222 10 0 61011 52200.00000 0 15443147.328 2018946.149 -20131295.435 10 0 61011 53100.00000 0 13184996.267 3279346.134 -21526139.355 10 0 61011 54000.00000 0 10907557.961 4787783.362 -22500337.946 10 0 61011 54900.00000 0 8676671.408 6519486.116 -23035060.920 10 0 61011 55800.00000 0 6553415.416 8437977.797 -23120120.010 10 0 61011 56700.00000 0 4591715.784 10496430.907 -22754150.595 10 0 61011 57600.00000 0 2836274.819 12639470.124 -21944615.585 10 0 61011 58500.00000 0 1320908.882 14805347.119 -20707633.305 10 0 61011 59400.00000 0 67361.512 16928394.371 -19067634.748 10 0 61011 60300.00000 0 -915361.089 18941653.891 -17056859.009 10 0 61011 61200.00000 0 -1631107.880 20779569.988 -14714698.760 10 0 61011 62100.00000 0 -2096153.131 22380633.230 -12086910.428 10 0 61011 63000.00000 0 -2338240.902 23689865.549 -9224706.013 10 0 61011 63900.00000 0 -2395147.675 24661043.746 -6183745.554 10 0 61011 64800.00000 0 -2312826.725 25258570.254 -3023050.657 10 0 61011 65700.00000 0 -2143214.688 25458915.240 196139.391 10 0 61011 66600.00000 0 -1941794.138 25251572.242 3411546.765 10 0 61011 67500.00000 0 -1765015.352 24639489.973 6561047.201 10 0 61011 68400.00000 0 -1667685.508 23638964.457 9583853.033 10 0 61011 69300.00000 0 -1700434.183 22278997.798 12421665.690 10 0 61011 70200.00000 0 -1907360.265 20600151.371 15019777.271 10 0 61011 71100.00000 0 -2323957.503 18652941.452 17328101.977 10 0 61011 72000.00000 0 -2975404.261 16495843.489 19302119.742 10 0 61011 72900.00000 0 -3875288.065 14192986.558 20903715.970 10 0 61011 73800.00000 0 -5024817.980 11811631.685 22101903.207 10 0 61011 74700.00000 0 -6412558.198 9419536.183 22873412.301 10 0 61011 75600.00000 0 -8014695.373 7082310.595 23203142.694 10 0 61011 76500.00000 0 -9795830.880 4860875.205 23084463.474 10 0 61011 77400.00000 0 -11710267.985 2809119.405 22519358.923 10 0 61011 78300.00000 0 -13703743.826 971859.363 21518414.596 10 0 61011 79200.00000 0 -15715537.736 -616822.016 20100642.326 10 0 61011 80100.00000 0 -17680871.506 -1934783.834 18293145.114 10 0 61011 81000.00000 0 -19533504.354 -2972533.518 16130625.602 10 0 61011 81900.00000 0 -21208416.389 -3733399.839 13654744.735 10 0 61011 82800.00000 0 -22644469.290 -4233163.549 10913340.279 10 0 61011 83700.00000 0 -23786932.669 -4499159.221 7959517.988 10 0 61011 84600.00000 0 -24589768.856 -4568884.331 4850631.271 10 0 61011 85500.00000 0 -25017577.887 -4488172.971 1647168.280 10 0 61012 0.00000 0 -25047117.979 -4309010.862 -1588431.778 10 0 61012 900.00000 0 -24668334.151 -4087084.422 -4793010.990 10 0 61012 1800.00000 0 -23884848.488 -3879169.310 -7903943.812 10 0 61012 2700.00000 0 -22713888.711 -3740471.050 -10860386.042 10 0 61012 3600.00000 0 -21185655.862 -3722033.617 -13604490.397 10 0 61012 4500.00000 0 -19342156.800 -3868329.073 -16082563.906 10 0 61012 5400.00000 0 -17235550.561 -4215133.744 -18246141.597 10 0 61012 6300.00000 0 -14926079.030 -4787783.960 -20052953.242 10 0 61012 7200.00000 0 -12479670.512 -5599887.654 -21467762.462 10 0 61012 8100.00000 0 -9965318.866 -6652548.011 -22463060.736 10 0 61012 9000.00000 0 -7452350.240 -7934132.779 -23019602.365 10 0 61012 9900.00000 0 -5007693.831 -9420598.950 -23126770.213 10 0 61012 10800.00000 0 -2693272.219 -11076358.331 -22782766.030 10 0 61012 11700.00000 0 -563620.875 -12855646.216 -21994623.054 10 0 61012 12600.00000 0 1336164.041 -14704333.872 -20778042.425 10 0 61012 13500.00000 0 2972065.358 -16562106.911 -19157058.669 10 0 61012 14400.00000 0 4322305.952 -18364916.477 -17163542.815 10 0 61012 15300.00000 0 5377985.836 -20047599.143 -14836554.931 10 0 61012 16200.00000 0 6143172.438 -21546554.987 -12221560.566 10 0 61012 17100.00000 0 6634444.351 -22802371.582 -9369527.960 10 0 61012 18000.00000 0 6879911.646 -23762284.568 -6335924.903 10 0 61012 18900.00000 0 6917757.492 -24382373.076 -3179635.627 10 0 61012 19800.00000 0 6794365.345 -24629399.882 38180.815 10 0 61012 20700.00000 0 6562112.538 -24482221.430 3255268.536 10 0 61012 21600.00000 0 6276924.338 -23932711.037 6409466.862 10 0 61012 22500.00000 0 5995691.578 -22986158.819 9439894.393 10 0 61012 23400.00000 0 5773659.948 -21661133.418 12288103.559 10 0 61012 24300.00000 0 5661899.471 -19988812.500 14899185.199 10 0 61012 25200.00000 0 5704958.849 -18011810.323 17222803.912 10 0 61012 26100.00000 0 5938801.465 -15782550.814 19214146.383 10 0 61012 27000.00000 0 6389108.062 -13361252.533 20834766.557 10 0 61012 27900.00000 0 7070016.260 -10813607.207 22053313.368 10 0 61012 28800.00000 0 7983349.406 -8208245.624 22846128.501 10 0 61012 29700.00000 0 9118367.665 -5614093.046 23197703.746 10 0 61012 30600.00000 0 10452053.364 -3097720.802 23100989.452 10 0 61012 31500.00000 0 11949921.116 -720801.173 22557547.750 10 0 61012 32400.00000 0 13567322.036 1462231.096 21577546.458 10 0 61012 33300.00000 0 15251191.120 3406215.067 20179591.923 10 0 61012 34200.00000 0 16942168.342 5076913.641 18390401.680 10 0 61012 35100.00000 0 18577008.030 6452208.434 16244320.439 10 0 61012 36000.00000 0 20091178.271 7522788.663 13782685.892 10 0 61012 36900.00000 0 21421543.018 8292303.630 11053053.839 10 0 61012 37800.00000 0 22509014.855 8776970.551 8108295.264 10 0 61012 38700.00000 0 23301066.272 9004652.324 5005581.087 10 0 61012 39600.00000 0 23753991.970 9013442.492 1805273.319 10 0 61012 40500.00000 0 23834824.274 8849816.203 -1430255.923 10 0 61012 41400.00000 0 23522817.636 8566425.188 -4637853.865 10 0 61012 42300.00000 0 22810436.200 8219630.885 -7754839.425 10 0 61012 43200.00000 0 21703799.531 7866881.948 -10720251.897 10 0 61012 44100.00000 0 20222565.042 7564049.769 -13476069.017 10 0 61012 45000.00000 0 18399250.229 7362837.958 -15968367.858 10 0 61012 45900.00000 0 16278022.407 7308378.805 -18148403.232 10 0 61012 46800.00000 0 13913006.978 7437121.598 -19973580.224 10 0 61012 47700.00000 0 11366186.353 7775104.852 -21408300.051 10 0 61012 48600.00000 0 8704979.345 8336687.452 -22424661.577 10 0 61012 49500.00000 0 5999604.460 9123793.445 -23003004.347 10 0 61012 50400.00000 0 3320339.436 10125702.527 -23132282.804 10 0 61012 51300.00000 0 734793.237 11319394.430 -22810265.256 10 0 61012 52200.00000 0 -1694694.602 12670431.362 -22043555.144 10 0 61012 53100.00000 0 -3913418.558 14134339.505 -20847435.963 10 0 61012 54000.00000 0 -5876337.836 15658429.437 -19245544.909 10 0 61012 54900.00000 0 -7549690.344 17183976.937 -17269383.694 10 0 61012 55800.00000 0 -8912125.264 18648670.816 -14957678.145 10 0 61012 56700.00000 0 -9955310.387 19989223.709 -12355600.946 10 0 61012 57600.00000 0 -10683992.725 21144035.624 -9513874.276 10 0 61012 58500.00000 0 -11115513.913 22055798.490 -6487771.132 10 0 61012 59400.00000 0 -11278804.568 22673933.176 -3336035.636 10 0 61012 60300.00000 0 -11212903.217 22956758.122 -119743.735 10 0 61012 61200.00000 0 -10965064.641 22873300.437 3098873.565 10 0 61012 62100.00000 0 -10588538.911 22404675.628 6257622.140 10 0 61012 63000.00000 0 -10140115.298 21544980.220 9295529.781 10 0 61012 63900.00000 0 -9677534.204 20301661.701 12154002.749 10 0 61012 64800.00000 0 -9256874.962 18695351.638 14777933.322 10 0 61012 65700.00000 0 -8930027.736 16759169.496 17116739.012 10 0 61012 66600.00000 0 -8742353.833 14537525.989 19125315.551 10 0 61012 67500.00000 0 -8730630.736 12084474.655 20764887.460 10 0 61012 68400.00000 0 -8921366.451 9461678.276 22003741.795 10 0 61012 69300.00000 0 -9329552.844 6736072.019 22817832.468 10 0 61012 70200.00000 0 -9957909.992 3977317.189 23191244.610 10 0 61012 71100.00000 0 -10796653.939 1255147.922 23116510.383 10 0 61012 72000.00000 0 -11823799.271 -1363282.266 22594769.824 10 0 61012 72900.00000 0 -13005986.402 -3815946.767 21635772.523 10 0 61012 73800.00000 0 -14299802.066 -6048281.434 20257718.298 10 0 61012 74700.00000 0 -15653541.159 -8015213.526 18486937.592 10 0 61012 75600.00000 0 -17009339.470 -9682799.987 16357415.010 10 0 61012 76500.00000 0 -18305590.781 -11029406.189 13910162.314 10 0 61012 77400.00000 0 -19479548.954 -12046374.583 11192450.236 10 0 61012 78300.00000 0 -20470006.730 -12738153.487 8256911.561 10 0 61012 79200.00000 0 -21219938.429 -13121878.611 5160531.056 10 0 61012 80100.00000 0 -21678993.935 -13226423.088 1963540.834 10 0 61012 81000.00000 0 -21805736.487 -13090954.664 -1271757.575 10 0 61012 81900.00000 0 -21569526.801 -12763060.301 -4482220.824 10 0 61012 82800.00000 0 -20951970.429 -12296517.742 -7605115.564 10 0 61012 83700.00000 0 -19947863.753 -11748809.471 -10579367.931 10 0 61012 84600.00000 0 -18565595.473 -11178486.412 -13346783.757 10 0 61012 85500.00000 0 -16826984.158 -10642495.668 -15853212.885 99